Weather in Zavodskoy

Russia / Tambov Oblast     53°06′10″N   40°18′45″E
temp.,
°C
wind,
m/s
gust,
m/s
humid.,
%
clouds,
%
prec.,
mm/h
press.,
hPa
HPBL,
m
19 september, sun
sun1900:00+9ese41049100 0.0 1021663
03:00+8ese51061100 0.1 1020656
06:00+7e51178100 0.5 1020471
09:00+7e61379100 0.8 1020552
12:00+7e71584100 1.1 1019605
15:00+8ese61384100 2.8 1019831
18:00+8ese71587100 2.8 1017778
21:00+8ese91792100 10.0 1015780
20 september, mon
mon2000:00+8ese91890100 8.3 10131056
03:00+8se81687100 11.9 1013946
06:00+8ese71492100 1.2 1012857
09:00+8ese61392100 1.3 1012785
12:00+8ese71390100 0.0 1012663
15:00+8ese71487100 0.0 1012676
18:00+8ese71489100 0.3 1012657
21:00+8se61389100 3.7 1013727
21 september, tue
tue2100:00+9se4992100 0.0 1013463
03:00+9se41096100 0.4 1013489
06:00+9se3697100 1.2 1013314
09:00+10ese3795100 1.3 1013301
12:00+12sse3784100 0.1 1013747
15:00+14s357098 0.4 10121004
18:00+12ssw117477 0.1 101213
21:00+9wnw369494 0.1 1013197
22 september, wed
wed2200:00+9wnw2593100 0.0 1013193
03:00+9nnw1289100 0.1 101363
06:00+9w1290100 0.1 101464
09:00+9nw1285100 0.3 1015238
12:00+9nnw228583 0.1 1016179
15:00+13nne126197 0.1 10151119
18:00+11nnw2273100 0.0 101638
21:00+10nw1177100 0.0 101632
23 september, thu
thu2300:00+9wnw2381100 0.0 101687
03:00+9nw1283100 0.0 101648
06:00+9nnw118399 0.0 101517
09:00+10nw1177100 0.0 1015135
12:00+14sw1262100 0.0 1015832
15:00+14s1350100 0.0 10141387
18:00+12nne1162100 0.0 101411
21:00+12n2265100 0.0 101340